Weather observations for the past three days for
Majuro Atoll - Marshall Islands Int. Airport
Metric (Imperial)
Date Time (+12) Wind (kph) Vis. (km) Weather Sky Cond. Temperature (ºC) Relative Humidity Wind Chill (°C) Heat Index (°C) Pressure Precipitation (cm)
Air Dwpt 6 hour altimeter (cm) sea level (mb) 1 hr 3 hr 6 hr
Max. Min.
02 19:59 Vrbl 7 24.14 Mostly Cloudy FEW015 SCT050 BKN300 29 25 79% 35 75.92 0.0
02 18:59 Vrbl 7 24.14 Mostly Cloudy FEW015 SCT050 BKN300 29 25 79% 35 75.84 0.0
02 17:59 Vrbl 9 24.14 Mostly Cloudy FEW015 SCT050 BKN300 30 26 79% 37 75.79 0.0
02 16:56 NW 11 24.14 Mostly Cloudy FEW015 SCT050 BKN300 30 26 79% 37 75.79 0.0
02 15:57 Vrbl 9 24.14 Mostly Cloudy FEW015 SCT050 BKN300 29 25 79% 35 75.79 0.0
01 20:52 NW 13 24.14 Overcast FEW015 SCT050 BKN110 OVC300 28 25 84% 33 75.9 0.0
01 19:56 NW 17 24.14 Overcast FEW015 SCT050 BKN110 OVC300 28 25 84% 33 75.84 0.0
01 10:58 Vrbl 9 24.14 Overcast FEW015 SCT050 BKN110 OVC300 28 24 79% 32 75.97 0.0
01 09:53 Vrbl 9 24.14 Overcast FEW015 SCT050 BKN110 OVC300 27 24 84% 30 76.02 0.0
01 08:52 NW 13 24.14 Overcast FEW015 SCT050 BKN110 OVC300 27 24 84% 30 76.05 0.0
31 23:55 NW 11 24.14 Overcast FEW015 SCT050 BKN110 OVC300 29 25 79% 35 76.07 0.0
31 22:52 Vrbl 9 24.14 Overcast FEW015 SCT050 BKN110 OVC300 29 26 84% 36 76.1 0.0
31 21:52 Vrbl 9 24.14 Overcast FEW015 SCT050 BKN110 OVC300 29 26 84% 36 76.07 0.0
31 20:59 N 15 24.14 Overcast FEW015 SCT050 BKN110 OVC300 29 26 84% 36 76.02 0.0
31 19:55 Vrbl 6 24.14 Overcast FEW015 SCT050 BKN110 OVC300 28 25 84% 33 76 0.0
31 18:50 Vrbl 7 24.14 Overcast FEW015 SCT050 BKN110 OVC300 28 25 84% 33 75.95 0.0
31 17:53 Vrbl 6 24.14 Light Rain FEW015TCU SCT050 BKN110 OVC300 28 25 84% 33 75.87 0.0
31 16:59 W 11 24.14 Mostly Cloudy FEW015 SCT050 BKN300 30 25 75% 36 75.84 0.0
31 15:54 Vrbl 9 24.14 Mostly Cloudy FEW015 SCT050 BKN300 30 25 75% 36 75.84 0.0
31 14:59 SW 13 24.14 Mostly Cloudy FEW015 SCT050 BKN300 31 25 70% 38 75.84 0.0
Date Time (+12) Wind (kph) Vis. (km) Weather Sky Cond. Air Dwpt Max. Min. Relative Humidity Wind Chill (°C) Heat Index (°C) altimeter (cm) sea level (mb) 1 hr 3 hr 6 hr
6 hour
Temperature (ºC) Pressure Precipitation (cm)